Regional Weather Roundup
Issued by NWS

Home | Current Version | Previous Version | Graphics & Text | Print | Product List | Glossary On
Versions: 1 2 3 4 5 6 7 8 9 10 11 12 13 14 15 16 17 18 19 20 21 22 23 24 25 26 27 28 29 30 31 32 33 34 35 36 37 38 39 40 41 42 43 44 45 46 47 48 49 50
000
ASUS43 KFSD 021602
RWRSD

WEATHER ROUNDUP FOR SOUTH DAKOTA
NATIONAL WEATHER SERVICE SIOUX FALLS SD
1100 AM CDT SUN AUG 02 2015

NOTE: "FAIR" INDICATES FEW OR NO CLOUDS BELOW 12,000 FEET WITH NO
SIGNIFICANT WEATHER AND/OR OBSTRUCTIONS TO VISIBILITY.


SDZ001>005-009-010-012>017-021700-
NORTHWEST AND NORTH CENTRAL SOUTH DAKOTA

CITY           SKY/WX    TMP DP  RH WIND       PRES   REMARKS
BUFFALO          N/A     74  50  42 NE13      29.95S
FAITH            N/A     76  48  37 NE20      29.95R
MOBRIDGE       SUNNY     76  58  53 N13G20    29.91R
$$

SDZ012>016-024>037-041>051-057-063-072>074-021700-
SOUTHWEST AND SOUTH CENTRAL SOUTH DAKOTA

CITY           SKY/WX    TMP DP  RH WIND       PRES   REMARKS
RAPID CTY ARPT SUNNY     75  52  44 NE8       30.01R
PIERRE         SUNNY     79  60  52 N15       29.87R
CUSTER         MOSUNNY   78  55  44 E5        30.13R
PHILIP           N/A     78  58  49 NE10      29.93R
PINE RIDGE     SUNNY     82  57  42 N7        29.98S
WINNER         FAIR      82  61  48 N13       29.89R
$$

SDZ004>011-016>023-039-040-021700-
NORTHEAST SOUTH DAKOTA

CITY           SKY/WX    TMP DP  RH WIND       PRES   REMARKS
ABERDEEN       SUNNY     77  59  53 N20       29.85R
WATERTOWN      SUNNY     77  60  55 N21G30    29.81R
BROOKINGS      SUNNY     77  63  61 N15       29.82R
SISSETON         N/A     74  61  63 N17       29.79R
$$

SDZ017-020-022-023-036>040-048>070-021700-
SOUTHEAST SOUTH DAKOTA

CITY           SKY/WX    TMP DP  RH WIND       PRES   REMARKS
SIOUX FALLS    MOSUNNY   81  65  58 NW13      29.79R
HURON          SUNNY     76  64  66 N18       29.82R
CHAMBERLAIN    SUNNY     79  63  57 N8        29.86R
MITCHELL       SUNNY     78  64  61 N15       29.82R
YANKTON        SUNNY     82  63  51 W10       29.79S
$$

ABBREVIATIONS USED IN REMARKS
   TC - TEMPERATURE IN CELSIUS
  WCI - WIND CHILL INDEX
   HX - HEAT INDEX
  VSB - VISIBILITY



USA.gov is the U.S. government's official web portal to all federal, state and local government web resources and services.